Location: Doschendorf
(50.0069°N, 11.0602°E)
Time: 03:46:52
(UTC+00:00)

Cosmos 1943 Rocket - Pass Details

Date: 17 November 2019
Orbit: 811 x 845 km, 71.0° (Epoch: 11 December)

Event Time Altitude Azimuth Distance (km) Brightness Sun altitude
Rises 16:31:28 0° 269° (W) 3,392 7.0 -9.9°
Reaches altitude 10° 16:34:54 10° 290° (WNW) 2,466 5.5 -10.5°
Maximum altitude 16:38:22 16° 328° (NNW) 2,061 4.4 -11.0°
Drops below altitude 10° 16:41:51 10° 6° (N) 2,478 4.4 -11.5°
Enters shadow 16:44:42 - 25° (NNE) 3,226 4.8 -12.0°
